Probability
6 13 10 10 10 6 10 10 10 10 10 10 6 3 3 3 3 3 6 6 10 6 3 3 6 6 6 10 6 6 6 6 10 6 6 10 3 3 10 10 13 13 10
3 6 6 10 10 10 10 10 10 10 10 10 6 6 6 6 3 6 6 10 10 10 6 3 6 6 10 6 3 6 6 6 6 6 13 10 3 3 3 3 10 10 10
3 10 10 10 13 10 6 6 6 6 6 3 6 3 3 0 3 6 6 10 10 10 10 10 6 6 6 10 3 10 6 6 6 6 13 10 10 6 6 3 3 6 6
6 6 10 6 10 10 10 3 3 3 3 3 3 3 3 3 6 6 6 10 13 13 13 13 13 13 10 6 6 6 6 10 10 10 10 10 10 13 10 10 6 10 6
6 6 6 6 10 10 10 6 3 3 3 3 6 6 6 3 3 3 6 10 10 13 19 23 19 13 13 6 6 10 10 10 13 13 16 16 10 6 6 10 10 6 6
6 3 3 6 6 10 10 10 3 6 3 3 3 3 3 3 6 10 10 10 16 13 23 23 23 16 13 13 13 13 10 10 10 10 13 16 10 6 6 6 10 13 13
3 0 0 0 3 6 13 6 6 6 3 6 6 6 6 3 13 13 13 13 13 16 16 26 26 26 16 16 19 16 19 16 13 13 13 16 10 10 10 10 10 13 13
3 3 0 0 0 3 10 10 6 6 6 6 6 10 10 10 13 13 16 13 13 16 19 23 23 23 26 26 26 26 23 19 19 19 19 19 19 10 10 16 16 16 13
6 0 0 3 10 10 6 10 10 6 6 6 6 6 6 6 10 13 16 16 13 16 16 26 23 23 26 26 26 26 29 29 23 19 23 19 19 13 13 16 16 16 13
13 6 3 6 10 10 13 13 10 13 13 10 13 19 16 10 13 16 19 23 23 19 19 26 29 26 23 23 23 26 26 29 29 26 16 23 16 13 13 13 16 16 16
13 13 13 13 10 6 6 6 13 10 16 16 16 16 23 19 23 19 23 26 19 23 23 23 23 26 26 26 23 26 32 32 32 32 29 26 26 19 16 19 19 13 10
10 10 6 6 13 6 6 6 13 23 19 16 16 16 23 16 26 26 19 19 23 23 26 23 23 26 29 29 32 29 32 32 29 29 26 26 26 19 16 16 16 13 10
10 10 13 10 13 16 19 19 13 26 23 19 16 19 26 23 23 29 23 19 19 26 29 29 26 26 32 32 32 32 32 29 29 32 32 29 29 23 19 16 13 16 13
6 10 13 13 16 19 19 26 23 16 23 16 16 16 19 19 23 23 19 16 16 16 26 32 32 39 35 35 32 32 26 26 29 29 35 35 29 29 23 19 16 10 10
6 10 10 13 16 16 19 23 23 23 26 26 16 16 23 23 23 16 19 19 19 19 19 19 26 32 35 39 32 32 29 29 32 32 32 29 23 19 19 16 19 13 10
10 13 13 13 16 16 23 19 19 19 19 26 26 26 23 29 23 19 19 19 19 19 19 23 23 19 23 19 16 13 26 26 29 29 26 26 23 23 10 10 10 13 10
16 13 13 10 10 13 13 19 19 19 23 23 19 26 29 26 19 19 19 19 19 19 23 23 19 23 19 16 13 13 19 23 19 23 23 19 19 13 19 6 6 6 3
16 16 16 10 10 6 6 13 16 19 19 23 19 19 26 26 23 16 16 16 19 19 23 23 19 19 16 13 10 6 10 13 13 16 16 16 19 16 16 13 10 6 3
10 10 10 13 13 6 6 13 19 16 16 23 26 23 16 16 16 16 16 16 19 19 19 19 19 19 16 10 6 0 10 10 13 13 13 13 16 13 3 10 6 3 3
13 13 13 13 16 13 13 13 13 13 16 19 16 13 10 10 10 13 13 13 16 19 19 19 16 16 13 10 6 3 10 10 10 10 10 10 6 3 0 3 6 3 6
13 13 13 13 13 13 16 16 16 16 13 13 16 13 6 6 10 13 16 16 13 19 16 16 16 13 13 10 6 3 6 10 10 10 10 10 6 0 0 0 0 3 3
10 10 6 10 13 13 16 16 16 16 13 13 10 10 6 6 6 6 13 16 16 13 13 16 13 10 10 10 6 0 3 6 6 10 10 6 0 0 0 0 0 0 0
10 10 6 6 6 13 16 13 10 10 13 13 13 13 6 3 6 6 6 10 13 16 13 10 13 10 10 6 6 0 0 0 3 3 3 3 0 0 0 0 0 0 0
3 3 3 3 3 6 6 10 13 6 13 13 13 13 13 10 6 6 6 6 6 10 10 10 10 6 3 6 6 3 0 0 0 0 0 0 0 0 0 0 0 0 0
0 0 0 0 3 3 6 6 6 6 13 10 10 10 10 10 6 6 3 3 3 3 3 3 3 3 6 0 0 3 3 3 3 0 0 0 0 0 0 0 0 0 0
0 0 0 0 0 3 6 6 6 6 6 6 6 6 6 6 6 3 3 3 3 3 0 0 3 3 0 0 0 0 0 0 0 0 0 0 0 0 0 0 0 0 0
Height
5896 5895 5894 5892 5891 5890 5889 5888 5887 5887 5887 5887 5886 5886 5887 5887 5887 5887 5888 5888 5889 5890 5891 5892 5893 5894 5895 5895 5896 5897 5897 5898 5898 5899 5900 5900 5900 5901 5901 5901 5901 5902 5902
5896 5895 5894 5892 5891 5890 5889 5888 5887 5887 5886 5886 5886 5886 5887 5887 5887 5887 5887 5887 5888 5889 5890 5891 5892 5893 5893 5894 5894 5895 5895 5896 5896 5897 5897 5898 5899 5899 5899 5899 5899 5899 5899
5895 5894 5893 5891 5890 5889 5888 5887 5886 5886 5886 5886 5886 5886 5886 5886 5886 5886 5886 5887 5888 5888 5889 5890 5890 5891 5892 5892 5893 5893 5893 5893 5894 5894 5895 5896 5896 5896 5897 5896 5896 5896 5896
5894 5892 5891 5890 5888 5887 5886 5886 5885 5885 5885 5885 5885 5885 5885 5885 5885 5885 5885 5886 5886 5887 5887 5888 5889 5889 5890 5890 5891 5891 5891 5891 5892 5892 5893 5893 5893 5894 5894 5894 5893 5893 5893
5892 5891 5889 5888 5886 5885 5884 5884 5884 5885 5885 5885 5884 5884 5884 5884 5884 5884 5884 5885 5885 5885 5886 5886 5887 5887 5888 5888 5888 5889 5889 5889 5889 5890 5890 5890 5891 5891 5891 5891 5891 5890 5890
5890 5889 5888 5886 5885 5884 5883 5882 5883 5884 5884 5884 5883 5883 5883 5882 5882 5882 5883 5883 5883 5883 5884 5884 5884 5885 5885 5885 5886 5886 5887 5887 5887 5887 5887 5887 5888 5888 5888 5888 5887 5887 5887
5887 5887 5886 5885 5884 5884 5883 5882 5883 5882 5882 5882 5882 5882 5881 5881 5880 5880 5880 5880 5881 5881 5881 5881 5882 5882 5882 5883 5883 5883 5883 5884 5884 5884 5884 5884 5884 5884 5884 5884 5883 5883 5883
5883 5883 5883 5883 5883 5882 5881 5881 5881 5880 5880 5880 5880 5880 5879 5879 5878 5878 5878 5877 5878 5878 5878 5878 5878 5879 5879 5879 5879 5880 5880 5880 5880 5880 5880 5880 5880 5880 5880 5879 5879 5879 5879
5880 5880 5880 5880 5880 5879 5879 5878 5879 5878 5878 5878 5878 5877 5877 5876 5876 5875 5875 5874 5874 5875 5874 5874 5875 5875 5875 5875 5876 5876 5876 5876 5876 5876 5876 5876 5875 5875 5875 5874 5874 5874 5874
5876 5877 5877 5877 5877 5876 5876 5876 5876 5875 5875 5875 5875 5874 5874 5873 5873 5872 5872 5871 5871 5871 5871 5871 5871 5871 5871 5871 5871 5871 5871 5871 5871 5871 5871 5871 5870 5870 5869 5869 5869 5868 5868
5873 5873 5873 5873 5873 5873 5873 5872 5872 5872 5872 5871 5871 5871 5870 5869 5869 5869 5868 5867 5867 5867 5866 5866 5866 5866 5865 5865 5865 5865 5865 5865 5865 5865 5865 5865 5865 5864 5864 5863 5862 5862 5862
5869 5869 5869 5869 5869 5869 5868 5868 5868 5868 5868 5867 5867 5866 5866 5865 5864 5864 5863 5862 5862 5861 5861 5861 5861 5861 5860 5859 5859 5859 5859 5859 5859 5859 5858 5858 5858 5857 5856 5856 5856 5855 5855
5864 5864 5865 5865 5865 5864 5864 5864 5863 5863 5863 5862 5862 5861 5860 5860 5859 5858 5857 5856 5856 5855 5855 5855 5854 5854 5854 5853 5852 5852 5852 5852 5852 5852 5851 5850 5850 5849 5849 5848 5848 5847 5847
5859 5859 5859 5859 5859 5859 5858 5858 5857 5857 5857 5856 5856 5855 5854 5853 5853 5852 5850 5849 5849 5848 5848 5848 5847 5847 5847 5846 5845 5846 5845 5845 5845 5844 5844 5843 5843 5842 5842 5841 5841 5840 5839
5853 5853 5853 5853 5853 5853 5853 5852 5851 5851 5850 5850 5849 5848 5847 5846 5845 5844 5843 5842 5841 5840 5840 5840 5840 5839 5839 5839 5838 5838 5838 5838 5838 5837 5836 5836 5835 5834 5834 5833 5833 5832 5831
5847 5847 5847 5847 5847 5847 5846 5845 5845 5844 5843 5842 5841 5840 5839 5838 5837 5836 5835 5833 5833 5832 5832 5831 5832 5831 5831 5831 5830 5830 5830 5830 5830 5829 5828 5828 5827 5826 5825 5825 5824 5823 5823
5840 5840 5840 5840 5840 5839 5839 5838 5837 5836 5835 5834 5834 5832 5831 5830 5829 5827 5826 5825 5824 5823 5823 5823 5823 5823 5823 5823 5823 5822 5822 5821 5821 5821 5820 5819 5819 5818 5817 5816 5815 5814 5813
5832 5832 5832 5832 5832 5832 5831 5830 5829 5828 5827 5826 5825 5824 5823 5822 5820 5819 5817 5816 5815 5815 5815 5815 5815 5815 5814 5814 5814 5813 5813 5813 5812 5812 5811 5811 5810 5809 5808 5807 5806 5805 5804
5824 5824 5823 5823 5823 5823 5822 5821 5820 5819 5818 5817 5816 5815 5813 5812 5811 5809 5808 5806 5806 5805 5806 5806 5805 5805 5805 5804 5804 5804 5803 5803 5803 5802 5802 5801 5801 5800 5799 5797 5796 5795 5794
5815 5815 5815 5814 5814 5813 5812 5811 5810 5809 5808 5807 5806 5804 5803 5802 5801 5800 5798 5797 5796 5796 5796 5796 5796 5795 5795 5795 5794 5794 5793 5793 5793 5792 5791 5791 5790 5789 5788 5787 5786 5785 5784
5806 5806 5805 5805 5805 5804 5803 5801 5800 5799 5798 5797 5795 5794 5793 5792 5791 5790 5789 5788 5787 5786 5786 5786 5785 5785 5785 5784 5784 5783 5783 5782 5782 5781 5781 5780 5779 5778 5777 5776 5775 5775 5773
5796 5796 5796 5795 5795 5794 5793 5792 5791 5790 5788 5786 5785 5784 5783 5782 5780 5779 5778 5777 5777 5776 5776 5775 5775 5774 5774 5774 5773 5772 5772 5772 5771 5771 5770 5769 5768 5767 5766 5765 5764 5763 5762
5786 5786 5786 5785 5785 5784 5783 5782 5781 5779 5778 5777 5775 5774 5773 5771 5770 5769 5768 5768 5766 5766 5765 5764 5763 5763 5763 5762 5762 5762 5761 5760 5760 5759 5759 5758 5757 5755 5755 5754 5753 5751 5750
5776 5776 5775 5775 5774 5773 5773 5771 5770 5769 5768 5767 5765 5764 5763 5761 5760 5759 5758 5757 5756 5755 5754 5752 5752 5752 5752 5751 5751 5750 5750 5749 5748 5748 5747 5746 5745 5744 5743 5742 5741 5739 5738
5766 5766 5765 5764 5764 5763 5762 5761 5760 5759 5758 5756 5755 5754 5753 5752 5750 5749 5748 5746 5745 5744 5743 5742 5741 5742 5742 5741 5741 5740 5739 5739 5738 5737 5736 5735 5734 5732 5731 5730 5729 5728 5726
5756 5756 5755 5754 5753 5753 5752 5751 5750 5749 5748 5746 5745 5744 5743 5742 5740 5739 5737 5735 5734 5733 5732 5731 5731 5730 5731 5730 5729 5729 5728 5728 5727 5726 5725 5724 5723 5722 5720 5719 5717 5716 5715
Wind_Speed
8 8 8 8 7 7 5 4 2 1 1 1 1 1 1 2 3 3 4 5 6 7 7 8 9 9 9 8 9 9 9 10 10 10 9 9 8 9 9 9 9 8 8
6 7 7 7 6 6 5 4 3 2 1 2 1 1 2 3 3 3 4 6 7 7 8 8 8 9 9 9 9 10 10 10 10 10 10 10 9 10 10 10 10 10 10
5 6 6 7 6 6 5 4 3 2 2 3 3 2 3 3 4 5 5 6 7 8 8 8 9 9 9 9 10 11 11 10 11 11 11 11 11 11 12 12 12 12 12
7 6 7 7 7 5 4 4 3 2 3 3 3 3 4 5 5 5 5 7 8 8 8 9 9 10 10 10 11 11 10 10 11 12 12 12 13 13 13 13 14 14 14
8 8 8 8 8 5 4 4 4 3 3 3 4 4 5 5 6 6 6 7 9 9 9 10 10 10 11 11 12 12 11 10 11 12 13 13 13 13 14 14 14 14 14
10 10 9 9 9 7 6 5 4 4 4 4 4 5 5 6 7 8 8 9 9 10 11 11 12 12 12 12 13 13 12 12 12 12 13 13 14 14 15 15 15 15 14
11 10 11 9 9 9 7 6 6 6 6 6 6 7 7 7 8 9 10 11 11 12 12 13 13 13 12 13 14 14 14 14 14 14 14 15 15 16 16 16 16 16 16
11 12 11 10 10 10 9 8 9 9 9 9 9 9 10 10 10 10 11 11 12 13 13 14 14 14 14 14 14 15 15 15 15 15 16 16 17 17 18 18 18 18 18
13 13 13 13 13 13 12 10 11 11 11 11 11 11 11 11 11 12 13 13 14 14 15 16 16 16 16 16 16 16 16 17 18 18 18 18 18 19 20 20 20 20 20
13 14 14 14 14 14 14 12 13 12 12 12 13 13 13 13 13 14 14 14 14 15 15 16 18 18 18 19 19 19 20 20 20 20 20 21 21 21 21 22 23 23 22
13 15 15 15 15 15 16 16 15 14 14 14 15 15 15 15 15 16 16 16 17 17 18 18 19 19 19 20 20 21 21 21 22 23 24 24 24 24 24 25 25 25 25
14 16 17 16 16 17 17 18 17 16 16 17 17 17 18 18 18 19 19 20 20 20 21 21 21 21 21 21 21 22 22 23 24 25 26 26 26 26 26 27 27 27 28
16 17 19 19 19 19 19 19 19 19 18 19 19 20 20 20 21 21 22 22 22 22 22 22 23 23 24 24 24 24 24 25 25 26 27 27 28 27 27 28 27 27 28
18 19 20 20 20 20 20 20 20 21 20 20 22 22 23 23 25 25 25 25 25 25 25 25 25 25 24 23 23 24 25 25 26 26 27 27 28 29 29 29 29 28 29
21 21 22 22 22 22 22 22 22 23 23 23 24 24 25 26 26 26 27 28 28 28 28 27 27 26 26 26 25 26 26 26 26 27 28 29 28 29 30 30 30 30 31
24 24 24 24 23 24 24 24 25 25 25 26 26 26 27 27 27 27 28 29 29 29 30 29 28 27 28 28 28 28 28 28 28 29 29 30 29 28 29 30 31 31 31
25 26 26 26 27 27 26 26 27 27 27 27 28 28 28 28 29 29 29 29 29 28 29 29 29 29 30 30 30 30 30 29 30 30 31 31 31 31 31 30 31 31 31
26 27 27 28 29 30 29 28 29 29 30 30 30 30 30 30 30 30 30 30 29 28 29 30 30 30 30 31 32 32 32 32 32 32 33 33 33 33 33 32 33 33 33
28 29 30 31 31 32 31 30 31 31 32 32 32 32 32 32 32 32 32 31 30 30 31 31 32 32 31 31 32 32 33 33 34 34 34 34 35 35 36 35 35 35 35
29 30 31 32 33 33 33 33 33 33 34 33 33 32 32 33 33 34 33 33 32 32 32 32 33 33 33 33 33 34 34 35 35 35 36 36 36 36 37 37 37 37 37
32 32 32 32 33 33 34 33 33 33 34 34 33 33 34 34 34 34 34 34 34 34 34 34 34 35 35 36 36 36 37 37 37 36 36 36 37 37 38 38 38 38 38
33 34 34 34 34 35 35 34 33 33 33 33 33 33 34 34 33 33 33 33 33 34 34 34 35 36 36 37 38 38 38 37 37 37 37 37 37 37 38 39 39 39 40
34 34 34 34 34 35 35 34 34 34 33 33 33 33 33 34 34 34 33 33 34 35 35 35 35 36 36 35 35 36 36 36 37 37 38 38 38 38 38 38 39 40 40
34 34 34 35 34 34 35 35 34 34 34 33 32 33 33 33 33 34 35 36 36 36 37 36 35 34 34 34 34 35 35 36 37 37 37 38 39 40 39 39 39 40 40
32 33 33 34 35 35 34 34 34 33 33 33 33 33 33 33 33 34 35 36 35 36 35 35 34 34 33 33 33 34 35 35 35 36 36 37 38 38 38 38 39 39 39
32 32 33 33 34 34 34 34 34 34 33 33 33 32 32 33 34 34 35 35 34 34 34 34 34 33 33 33 33 33 34 35 36 36 37 37 37 37 37 38 38 38 39
Wind_Direction
15 14 11 11 13 10 9 7 15 10 359 173 167 182 191 188 199 213 220 226 226 226 231 230 228 229 230 233 233 234 238 240 241 244 243 247 253 258 259 264 270 275 278
359 355 357 358 357 352 356 360 354 328 298 244 230 214 217 222 231 228 228 230 229 233 235 240 237 235 236 240 240 239 241 242 243 246 250 251 251 254 259 265 269 272 278
338 340 337 340 339 338 340 345 335 308 264 241 236 240 228 231 239 240 238 237 236 240 236 238 235 234 239 242 244 246 247 249 248 248 252 254 255 258 262 268 269 272 277
318 323 323 321 323 318 316 323 315 291 266 244 238 250 250 248 251 252 251 247 243 240 239 241 239 240 242 243 245 247 248 250 250 252 252 254 255 260 267 272 273 273 275
294 302 305 308 317 315 295 293 299 287 269 257 253 259 260 257 255 256 255 250 243 242 244 243 243 245 245 245 247 249 250 253 255 252 250 254 259 265 268 272 274 276 276
281 285 287 296 303 303 290 278 284 281 269 264 264 265 264 261 259 258 255 254 250 247 247 247 251 252 251 250 250 253 255 257 257 254 253 255 259 265 269 273 275 277 278
272 275 279 287 295 294 293 288 281 279 270 267 267 268 268 269 265 259 259 258 255 252 252 254 255 255 255 254 252 253 255 257 258 257 258 259 262 266 270 275 274 274 275
267 267 273 278 282 283 281 278 275 275 272 268 271 274 275 273 271 267 264 259 256 256 254 256 256 257 259 258 257 258 257 257 259 260 260 262 264 268 271 274 273 272 274
269 267 269 271 274 273 273 278 278 276 278 273 272 275 277 277 277 275 272 267 261 260 261 258 258 258 260 262 260 261 261 260 260 260 261 265 267 268 270 272 274 273 274
264 266 268 269 270 271 272 273 276 277 279 277 277 273 272 275 276 277 276 272 267 265 267 264 260 262 263 265 265 264 263 263 262 263 264 266 268 269 271 272 273 274 276
262 264 268 269 273 274 274 273 278 276 278 275 276 278 275 275 275 273 272 270 268 267 267 266 267 265 263 265 265 264 263 262 263 265 267 267 267 270 272 273 274 274 275
265 266 269 272 274 275 276 277 277 276 277 276 278 278 280 280 279 277 274 270 268 269 269 268 268 268 267 267 268 268 265 266 265 266 268 268 267 269 271 273 273 274 275
268 267 269 273 276 275 275 276 275 276 276 277 279 279 279 279 279 278 277 273 272 269 270 270 269 267 267 268 269 269 269 268 267 269 269 269 269 270 273 275 275 275 275
267 270 271 272 273 274 275 276 276 277 277 277 279 280 280 278 278 278 276 275 274 271 269 269 270 270 270 274 273 270 273 273 272 273 273 273 272 273 274 276 277 277 276
267 271 272 272 273 273 275 276 277 278 278 278 279 280 281 280 279 280 278 275 274 272 270 270 270 271 270 272 275 274 274 275 275 275 274 274 275 274 273 275 276 277 278
270 270 274 273 273 274 274 277 278 278 279 280 279 280 282 283 281 281 280 278 276 274 272 273 272 271 270 272 274 273 274 273 273 274 275 275 275 276 276 274 275 276 278
270 272 275 277 277 276 277 277 277 277 277 278 279 280 281 282 281 282 282 282 280 277 274 273 272 271 270 271 272 273 274 274 275 275 276 276 277 277 275 275 276 277 278
270 271 273 275 278 278 278 278 278 277 277 277 278 279 280 280 280 281 281 280 278 276 275 273 272 273 274 274 274 275 273 274 275 276 276 276 277 278 276 276 276 278 279
272 272 273 275 276 276 276 277 279 279 278 278 277 277 277 279 280 281 280 278 277 275 274 274 273 273 274 274 274 276 275 275 275 275 276 276 277 278 278 277 277 279 280
273 272 272 273 275 276 277 280 281 282 280 281 279 277 277 278 278 279 280 279 276 274 273 272 273 274 274 275 275 277 277 276 276 276 276 276 277 277 278 277 277 278 279
273 274 273 273 275 277 279 281 283 283 282 282 281 279 278 278 278 277 277 276 275 275 274 273 272 273 273 274 275 276 277 277 277 277 277 277 276 277 277 277 277 277 277
271 272 273 274 275 276 278 280 281 281 281 281 281 281 279 278 277 276 277 276 276 275 275 274 273 274 274 275 275 275 276 277 277 277 278 277 277 277 277 276 277 278 278
271 271 273 274 276 277 279 279 279 279 280 281 280 280 280 280 277 276 275 275 276 277 277 276 276 276 276 277 277 277 277 278 279 278 278 277 277 277 276 276 277 277 277
271 273 274 274 275 277 278 279 278 279 280 280 280 279 279 279 277 276 276 276 276 277 278 279 278 278 278 278 278 278 278 278 279 280 278 278 277 276 276 276 277 277 277
271 273 274 274 275 277 277 279 279 278 279 279 278 279 278 277 277 278 277 277 278 278 280 280 279 278 279 278 278 279 278 277 278 279 280 280 279 278 278 278 279 279 278
274 273 274 275 274 275 276 277 279 278 279 280 280 280 279 279 281 281 281 279 279 279 278 278 278 278 279 279 279 280 279 279 278 279 280 280 280 280 280 280 281 281 280